Hourly Data Report for September 08, 2012

HALIFAX STANFIELD INT'L A
NOVA SCOTIA

44°52'48.060" N
63°30'00.050" W
145.40 m
8202250
71395
YHZ

Download Data

Hourly Data (September 2012)
Hourly Data Report for September 8, 2012
TIME
LST
Temp Definition
°C
Dew Point Definition
°C
Rel Hum Definition
%
Precip. Amount Definition
mm

Wind Dir Definition
10's deg

Wind Spd Definition
km/h
Visibility Definition
km
Stn Press Definition
kPa
Hmdx Definition


Wind Chill Definition


Weather Definition


00:00 17.1 17.1 100   25 7 24.1 99.73     Cloudy
01:00 16.4 16.4 100   25 13 24.1 99.74     Mostly Cloudy
02:00 17.5 17.5 100   24 7 24.1 99.74     Cloudy
03:00 17.1 17.1 100   28 9 24.1 99.76     Mostly Cloudy
04:00 15.4 15.4 100   20 4 1.6 99.75     Fog
05:00 15.2 15.2 100   21 9 0.4 99.80     Fog
06:00 15.8 15.8 100   22 9 0.2 99.94     Fog
07:00 15.9 15.9 100   21 7 2.4 99.94     Fog
08:00 16.7 16.7 100   21 15 19.3 99.95     Cloudy
09:00 18.0 16.9 93   18 9 24.1 99.96     Mostly Cloudy
10:00 20.4 17.2 82   17 4 24.1 99.93 26   Mostly Cloudy
11:00 22.5 17.2 72   23 19 24.1 99.89 28   Mostly Cloudy
12:00 23.4 17.9 71   21 15 24.1 99.85 29   Mostly Cloudy
13:00 24.2 18.7 71   20 13 24.1 99.83 31   Mainly Clear
14:00 24.2 18.4 70   18 20 24.1 99.80 31   Mainly Clear
15:00 22.8 18.4 76   19 22 24.1 99.84 29   Mostly Cloudy
16:00 20.4 17.7 84   21 26 24.1 99.87 26   Cloudy
17:00 20.2 18.2 88   19 20 24.1 99.84 26   Mostly Cloudy
18:00 19.5 17.3 87   18 26 24.1 99.80     Clear
19:00 18.2 17.8 98   17 24 24.1 99.78     Mainly Clear
20:00 17.3 17.3 100   17 22 24.1 99.81     Cloudy
21:00 17.7 17.7 100   16 22 24.1 99.77     Mostly Cloudy
22:00 18.1 18.1 100   18 22 16.1 99.79     Cloudy
23:00 18.0 18.0 100   16 24 1.2 99.72     Fog

Notes on Data Quality.

Legend

  • E = Estimated
  • M = Missing
  • NA = Not Available*
  • [empty] = Indicates an unobserved value
Date modified: